Back to catalog

THOR ABLESTAR DEB

AliveLEO
NORAD 537·DEBRIS·🇺🇸 United States

Launched Jun 29, 1961 from Cape Canaveral Space Force Station

Loading…

Next Passes (next 24 hours)

TLE

FreshSource: Space-Track

Epoch: Sep 14, 2026, 11:18 UTC

1 00537U 61015FW  26257.47150911  .00000200  00000-0  29740-3 0  9995
2 00537  67.2244 273.1540 0178977 225.9435 287.4513 13.65177079 27334

Track THOR ABLESTAR DEB in real time with AllMySat

Download on the App Store